AAL308 KMIA-TXKF

Flight info

Callsign AAL308
Flight time 2h 9m
Altitude 37000
Route FOLZZ3 ZFP DCT BAAGR DCT CNNOR/M076F370 M328 ANTIG POPOP1
Aircraft A319/M-SDE3FGHIRWY/LB1

Departure

Time 2026-05-05 21:31
Airport Miami International Airport (KMIA)

Arrival

Time 2026-05-05 23:41
Airport L.F. Wade International Airport (TXKF)
Time Latitude Longitude Altitude Speed Heading
2026-05-05 20:17 25.79627 -80.28024 19 ft 0 kts 29°
2026-05-05 21:20 25.79616 -80.28031 18 ft 4 kts 29°
2026-05-05 21:20 25.79592 -80.28046 19 ft 4 kts 29°
2026-05-05 21:21 25.79569 -80.28060 20 ft 1 kts 29°
2026-05-05 21:23 25.79573 -80.28059 19 ft 2 kts 15°
2026-05-05 21:23 25.79601 -80.28078 19 ft 7 kts 303°
2026-05-05 21:24 25.79627 -80.28145 21 ft 12 kts 292°
2026-05-05 21:24 25.79661 -80.28239 18 ft 14 kts 296°
2026-05-05 21:24 25.79675 -80.28330 19 ft 11 kts 266°
2026-05-05 21:24 25.79670 -80.28416 19 ft 12 kts 266°
2026-05-05 21:25 25.79664 -80.28518 19 ft 14 kts 264°
2026-05-05 21:25 25.79648 -80.28626 20 ft 12 kts 266°
2026-05-05 21:25 25.79643 -80.28722 20 ft 13 kts 265°
2026-05-05 21:25 25.79646 -80.28824 21 ft 13 kts 274°
2026-05-05 21:26 25.79668 -80.28921 20 ft 13 kts 291°
2026-05-05 21:26 25.79694 -80.28993 22 ft 8 kts 292°
2026-05-05 21:26 25.79716 -80.29055 21 ft 10 kts 292°
2026-05-05 21:26 25.79778 -80.29090 21 ft 11 kts 358°
2026-05-05 21:27 25.79856 -80.29093 23 ft 12 kts 358°
2026-05-05 21:27 25.79951 -80.29098 21 ft 14 kts 356°
2026-05-05 21:27 25.80001 -80.29170 21 ft 14 kts 266°
2026-05-05 21:27 25.79995 -80.29280 20 ft 16 kts 267°
2026-05-05 21:28 25.79990 -80.29424 15 ft 21 kts 268°
2026-05-05 21:28 25.79983 -80.29590 14 ft 22 kts 267°
2026-05-05 21:28 25.79976 -80.29747 14 ft 20 kts 267°
2026-05-05 21:28 25.79971 -80.29888 12 ft 16 kts 267°
2026-05-05 21:29 25.79966 -80.30008 12 ft 14 kts 266°
2026-05-05 21:29 25.79988 -80.30100 15 ft 11 kts 301°
2026-05-05 21:29 25.80033 -80.30128 15 ft 7 kts 354°
2026-05-05 21:29 25.80073 -80.30093 14 ft 9 kts 81°
2026-05-05 21:30 25.80074 -80.30054 13 ft 0 kts 88°
2026-05-05 21:30 25.80075 -80.30040 13 ft 15 kts 88°
2026-05-05 21:30 25.80094 -80.29618 14 ft 91 kts 87°
2026-05-05 21:30 25.80131 -80.28688 20 ft 149 kts 88°
2026-05-05 21:31 25.80174 -80.27484 568 ft 149 kts 88°
2026-05-05 21:31 25.80226 -80.26365 1248 ft 148 kts 90°
2026-05-05 21:31 25.80001 -80.25236 1827 ft 156 kts 112°
2026-05-05 21:31 25.79509 -80.24067 2198 ft 179 kts 115°
2026-05-05 21:32 25.78929 -80.22749 2540 ft 202 kts 115°
2026-05-05 21:32 25.78269 -80.21275 2859 ft 226 kts 116°
2026-05-05 21:32 25.77530 -80.19629 3276 ft 251 kts 116°
2026-05-05 21:32 25.76715 -80.17830 3916 ft 268 kts 117°
2026-05-05 21:33 25.75830 -80.15970 4784 ft 277 kts 118°
2026-05-05 21:33 25.74962 -80.14072 5672 ft 283 kts 110°
2026-05-05 21:33 25.74596 -80.11907 6516 ft 290 kts 90°
2026-05-05 21:33 25.74967 -80.09691 7364 ft 297 kts 68°
2026-05-05 21:34 25.76054 -80.07743 8197 ft 300 kts 47°
2026-05-05 21:34 25.77447 -80.05987 9058 ft 305 kts 48°
2026-05-05 21:34 25.78860 -80.04208 9879 ft 311 kts 47°
2026-05-05 21:34 25.80323 -80.02367 10394 ft 327 kts 47°
2026-05-05 21:35 25.81873 -80.00408 10822 ft 345 kts 47°
2026-05-05 21:35 25.83466 -79.98389 11542 ft 350 kts 47°
2026-05-05 21:35 25.85060 -79.96365 12263 ft 355 kts 46°
2026-05-05 21:35 25.86692 -79.94287 12999 ft 359 kts 46°
2026-05-05 21:36 25.88338 -79.92191 13743 ft 362 kts 46°
2026-05-05 21:36 25.89997 -79.90080 14462 ft 365 kts 46°
2026-05-05 21:36 25.91670 -79.87950 15173 ft 367 kts 46°
2026-05-05 21:36 25.93357 -79.85802 15859 ft 370 kts 45°
2026-05-05 21:37 25.95052 -79.83641 16533 ft 373 kts 45°
2026-05-05 21:37 25.96762 -79.81461 17193 ft 375 kts 45°
2026-05-05 21:37 25.98460 -79.79298 17831 ft 378 kts 45°
2026-05-05 21:37 26.00193 -79.77088 18459 ft 381 kts 45°
2026-05-05 21:38 26.01372 -79.75583 18862 ft 383 kts 45°
2026-05-05 21:38 26.03338 -79.73066 19497 ft 388 kts 45°
2026-05-05 21:38 26.05118 -79.70789 20044 ft 392 kts 44°
2026-05-05 21:38 26.06916 -79.68489 20578 ft 396 kts 44°
2026-05-05 21:39 26.08734 -79.66165 21089 ft 401 kts 44°
2026-05-05 21:39 26.10564 -79.63796 21585 ft 406 kts 47°
2026-05-05 21:39 26.12234 -79.61226 22076 ft 412 kts 50°
2026-05-05 21:39 26.13897 -79.58610 22558 ft 416 kts 50°
2026-05-05 21:40 26.15554 -79.56001 23032 ft 420 kts 50°
2026-05-05 21:40 26.17246 -79.53332 23486 ft 424 kts 50°
2026-05-05 21:40 26.18957 -79.50631 23934 ft 429 kts 50°
2026-05-05 21:40 26.20681 -79.47906 24387 ft 432 kts 50°
2026-05-05 21:41 26.22421 -79.45157 24826 ft 435 kts 49°
2026-05-05 21:41 26.24171 -79.42394 25274 ft 438 kts 49°
2026-05-05 21:41 26.25929 -79.39615 25716 ft 440 kts 49°
2026-05-05 21:41 26.27698 -79.36820 26148 ft 442 kts 49°
2026-05-05 21:42 26.29306 -79.33919 26552 ft 451 kts 58°
2026-05-05 21:42 26.30635 -79.30732 26949 ft 455 kts 60°
2026-05-05 21:42 26.31954 -79.27517 27353 ft 458 kts 60°
2026-05-05 21:42 26.33282 -79.24283 27762 ft 460 kts 60°
2026-05-05 21:43 26.34618 -79.21029 28142 ft 462 kts 60°
2026-05-05 21:43 26.35959 -79.17763 28537 ft 464 kts 60°
2026-05-05 21:43 26.37305 -79.14481 28944 ft 466 kts 60°
2026-05-05 21:43 26.38657 -79.11188 29329 ft 468 kts 60°
2026-05-05 21:44 26.40016 -79.07880 29700 ft 470 kts 60°
2026-05-05 21:44 26.41380 -79.04551 30076 ft 472 kts 60°
2026-05-05 21:44 26.42726 -79.01258 30436 ft 474 kts 60°
2026-05-05 21:44 26.44096 -78.97904 30807 ft 476 kts 59°
2026-05-05 21:45 26.45469 -78.94542 31148 ft 477 kts 59°
2026-05-05 21:45 26.46849 -78.91159 31483 ft 480 kts 59°
2026-05-05 21:45 26.48232 -78.87766 31806 ft 481 kts 59°
2026-05-05 21:45 26.49620 -78.84359 32141 ft 483 kts 58°
2026-05-05 21:46 26.51014 -78.80939 32436 ft 485 kts 58°
2026-05-05 21:46 26.52402 -78.77521 32869 ft 483 kts 58°
2026-05-05 21:46 26.53764 -78.74152 33290 ft 482 kts 58°
2026-05-05 21:46 26.55046 -78.70687 33701 ft 487 kts 64°
2026-05-05 21:47 26.55885 -78.66987 34104 ft 496 kts 73°
2026-05-05 21:47 26.56380 -78.63167 34499 ft 497 kts 75°
2026-05-05 21:47 26.56866 -78.59349 34855 ft 496 kts 74°
2026-05-05 21:47 26.57356 -78.55536 35206 ft 496 kts 74°
2026-05-05 21:48 26.57844 -78.51727 35531 ft 495 kts 74°
2026-05-05 21:48 26.58165 -78.49203 35744 ft 495 kts 74°
2026-05-05 21:48 26.58644 -78.45403 36078 ft 494 kts 74°
2026-05-05 21:48 26.59282 -78.40376 36485 ft 493 kts 74°
2026-05-05 21:49 26.59763 -78.36587 36761 ft 493 kts 74°
2026-05-05 21:49 26.60240 -78.32795 36993 ft 492 kts 74°
2026-05-05 21:49 26.61167 -78.25321 37044 ft 480 kts 74°
2026-05-05 21:50 26.61919 -78.19215 37045 ft 475 kts 73°
2026-05-05 21:50 26.62833 -78.11907 37049 ft 474 kts 73°
2026-05-05 21:51 26.63750 -78.04603 37046 ft 475 kts 73°
2026-05-05 21:51 26.64648 -77.97345 37043 ft 475 kts 74°
2026-05-05 21:52 26.65988 -77.86381 37047 ft 474 kts 73°
2026-05-05 21:53 26.67030 -77.77895 37044 ft 474 kts 73°
2026-05-05 21:53 26.67785 -77.71774 37035 ft 475 kts 73°
2026-05-05 21:54 26.68661 -77.64509 37032 ft 475 kts 74°
2026-05-05 21:54 26.69533 -77.57190 37034 ft 475 kts 73°
2026-05-05 21:55 26.70420 -77.49864 37029 ft 475 kts 73°
2026-05-05 21:55 26.71296 -77.42530 37031 ft 476 kts 73°
2026-05-05 21:56 26.72157 -77.35237 37030 ft 477 kts 74°
2026-05-05 21:56 26.73028 -77.27876 37034 ft 478 kts 74°
2026-05-05 21:57 26.73893 -77.20507 37042 ft 478 kts 74°
2026-05-05 21:57 26.74755 -77.13139 37037 ft 478 kts 74°
2026-05-05 21:58 26.75623 -77.05757 37043 ft 478 kts 74°
2026-05-05 21:58 26.76476 -76.98424 37040 ft 479 kts 74°
2026-05-05 21:59 26.77329 -76.91037 37039 ft 479 kts 74°
2026-05-05 21:59 26.78176 -76.83638 37039 ft 479 kts 74°
2026-05-05 22:00 26.79023 -76.76300 37038 ft 479 kts 74°
2026-05-05 22:00 26.79865 -76.68900 37037 ft 479 kts 74°
2026-05-05 22:01 26.80701 -76.61494 37032 ft 480 kts 74°
2026-05-05 22:01 26.81797 -76.54187 37033 ft 467 kts 63°
2026-05-05 22:01 26.82925 -76.50836 37035 ft 454 kts 53°
2026-05-05 22:02 26.84441 -76.47803 37028 ft 441 kts 44°
2026-05-05 22:02 26.87881 -76.42210 37023 ft 439 kts 44°
2026-05-05 22:03 26.91334 -76.36556 37021 ft 440 kts 44°
2026-05-05 22:03 26.94784 -76.30877 37023 ft 441 kts 44°
2026-05-05 22:04 26.98251 -76.25201 37028 ft 441 kts 44°
2026-05-05 22:04 27.01698 -76.19559 37037 ft 441 kts 44°
2026-05-05 22:05 27.05159 -76.13871 37037 ft 442 kts 44°
2026-05-05 22:05 27.08617 -76.08173 37037 ft 442 kts 44°
2026-05-05 22:06 27.12073 -76.02469 37045 ft 442 kts 44°
2026-05-05 22:06 27.15501 -75.96806 37035 ft 442 kts 44°
2026-05-05 22:07 27.18958 -75.91088 37024 ft 443 kts 44°
2026-05-05 22:07 27.22427 -75.85351 37028 ft 444 kts 44°
2026-05-05 22:08 27.25901 -75.79602 37023 ft 445 kts 44°
2026-05-05 22:08 27.29357 -75.73867 37028 ft 447 kts 44°
2026-05-05 22:09 27.32840 -75.68076 37030 ft 447 kts 45°
2026-05-05 22:09 27.36325 -75.62286 37032 ft 447 kts 45°
2026-05-05 22:10 27.39807 -75.56484 37034 ft 448 kts 45°
2026-05-05 22:10 27.43287 -75.50667 37035 ft 448 kts 45°
2026-05-05 22:11 27.46754 -75.44896 37034 ft 448 kts 45°
2026-05-05 22:11 27.50242 -75.39080 37032 ft 449 kts 45°
2026-05-05 22:12 27.53727 -75.33239 37042 ft 449 kts 45°
2026-05-05 22:12 27.57202 -75.27383 37037 ft 450 kts 45°
2026-05-05 22:13 27.60665 -75.21565 37036 ft 450 kts 45°
2026-05-05 22:13 27.64159 -75.15707 37037 ft 451 kts 46°
2026-05-05 22:14 27.67658 -75.09844 37032 ft 451 kts 46°
2026-05-05 22:14 27.71145 -75.03965 37034 ft 451 kts 46°
2026-05-05 22:15 27.74602 -74.98112 37030 ft 451 kts 46°
2026-05-05 22:15 27.78080 -74.92218 37027 ft 452 kts 46°
2026-05-05 22:16 27.81569 -74.86310 37030 ft 452 kts 46°
2026-05-05 22:16 27.85067 -74.80398 37033 ft 453 kts 47°
2026-05-05 22:17 27.88523 -74.74483 37029 ft 454 kts 47°
2026-05-05 22:17 27.91990 -74.68506 37031 ft 455 kts 48°
2026-05-05 22:18 27.95470 -74.62518 37033 ft 456 kts 48°
2026-05-05 22:18 27.98962 -74.56527 37026 ft 456 kts 48°
2026-05-05 22:19 28.02429 -74.50559 37023 ft 457 kts 48°
2026-05-05 22:19 28.05916 -74.44537 37030 ft 458 kts 48°
2026-05-05 22:20 28.09410 -74.38501 37032 ft 459 kts 49°
2026-05-05 22:20 28.12913 -74.32444 37038 ft 460 kts 49°
2026-05-05 22:21 28.16419 -74.26385 37038 ft 460 kts 49°
2026-05-05 22:21 28.19896 -74.20352 37039 ft 460 kts 49°
2026-05-05 22:22 28.23388 -74.14270 37044 ft 460 kts 49°
2026-05-05 22:22 28.26885 -74.08197 37045 ft 460 kts 49°
2026-05-05 22:23 28.30382 -74.02117 37049 ft 460 kts 49°
2026-05-05 22:23 28.33836 -73.96064 37046 ft 460 kts 49°
2026-05-05 22:24 28.37320 -73.89968 37038 ft 461 kts 49°
2026-05-05 22:24 28.40812 -73.83862 37035 ft 461 kts 49°
2026-05-05 22:25 28.44305 -73.77745 37035 ft 461 kts 49°
2026-05-05 22:25 28.47776 -73.71660 37037 ft 462 kts 50°
2026-05-05 22:26 28.51274 -73.65529 37035 ft 463 kts 50°
2026-05-05 22:26 28.54774 -73.59376 37033 ft 464 kts 50°
2026-05-05 22:27 28.58271 -73.53202 37047 ft 464 kts 50°
2026-05-05 22:27 28.61743 -73.47053 37046 ft 465 kts 50°
2026-05-05 22:28 28.65250 -73.40849 37048 ft 466 kts 50°
2026-05-05 22:28 28.68763 -73.34634 37051 ft 467 kts 50°
2026-05-05 22:29 28.72281 -73.28402 37053 ft 468 kts 51°
2026-05-05 22:29 28.75773 -73.22197 37052 ft 468 kts 51°
2026-05-05 22:30 28.79294 -73.15943 37053 ft 469 kts 51°
2026-05-05 22:30 28.82811 -73.09674 37055 ft 470 kts 51°
2026-05-05 22:31 28.86328 -73.03388 37057 ft 471 kts 51°
2026-05-05 22:31 28.89857 -72.97094 37061 ft 471 kts 51°
2026-05-05 22:32 28.93366 -72.90829 37059 ft 472 kts 51°
2026-05-05 22:32 28.96898 -72.84502 37061 ft 473 kts 52°
2026-05-05 22:33 29.00433 -72.78158 37063 ft 473 kts 52°
2026-05-05 22:33 29.03964 -72.71802 37063 ft 474 kts 52°
2026-05-05 22:34 29.07476 -72.65471 37062 ft 475 kts 52°
2026-05-05 22:34 29.11013 -72.59094 37060 ft 475 kts 52°
2026-05-05 22:35 29.14559 -72.52702 37060 ft 476 kts 52°
2026-05-05 22:35 29.18106 -72.46290 37059 ft 477 kts 53°
2026-05-05 22:36 29.21628 -72.39907 37061 ft 478 kts 53°
2026-05-05 22:36 29.25174 -72.33473 37060 ft 478 kts 53°
2026-05-05 22:37 29.28729 -72.27022 37059 ft 479 kts 53°
2026-05-05 22:37 29.32278 -72.20551 37061 ft 480 kts 53°
2026-05-05 22:38 29.35837 -72.14071 37064 ft 481 kts 53°
2026-05-05 22:38 29.39381 -72.07617 37069 ft 482 kts 54°
2026-05-05 22:39 29.42938 -72.01099 37070 ft 482 kts 54°
2026-05-05 22:39 29.46500 -71.94566 37066 ft 483 kts 54°
2026-05-05 22:40 29.50078 -71.88020 37067 ft 484 kts 54°
2026-05-05 22:40 29.53634 -71.81506 37067 ft 485 kts 54°
2026-05-05 22:41 29.57209 -71.74926 37068 ft 486 kts 55°
2026-05-05 22:41 29.60779 -71.68328 37072 ft 486 kts 55°
2026-05-05 22:42 29.64354 -71.61724 37077 ft 486 kts 55°
2026-05-05 22:42 29.67906 -71.55164 37080 ft 487 kts 55°
2026-05-05 22:43 29.71471 -71.48552 37083 ft 486 kts 55°
2026-05-05 22:43 29.75034 -71.41931 37083 ft 487 kts 55°
2026-05-05 22:44 29.78596 -71.35305 37087 ft 487 kts 55°
2026-05-05 22:44 29.82163 -71.28687 37091 ft 487 kts 56°
2026-05-05 22:45 29.85696 -71.22099 37088 ft 486 kts 56°
2026-05-05 22:45 29.89241 -71.15466 37085 ft 486 kts 56°
2026-05-05 22:46 29.92788 -71.08832 37085 ft 486 kts 56°
2026-05-05 22:46 29.96340 -71.02197 37094 ft 486 kts 56°
2026-05-05 22:47 29.99880 -70.95561 37085 ft 486 kts 56°
2026-05-05 22:47 30.03391 -70.88959 37086 ft 486 kts 57°
2026-05-05 22:48 30.06916 -70.82309 37091 ft 486 kts 57°
2026-05-05 22:48 30.10440 -70.75661 37092 ft 485 kts 57°
2026-05-05 22:49 30.13961 -70.69014 37106 ft 485 kts 58°
2026-05-05 22:49 30.17447 -70.62415 37093 ft 484 kts 58°
2026-05-05 22:50 30.20960 -70.55766 37097 ft 484 kts 58°
2026-05-05 22:50 30.24466 -70.49123 37086 ft 484 kts 58°
2026-05-05 22:51 30.27959 -70.42473 37084 ft 484 kts 58°
2026-05-05 22:51 30.31429 -70.35856 37083 ft 484 kts 58°
2026-05-05 22:52 30.34919 -70.29196 37084 ft 484 kts 58°
2026-05-05 22:52 30.38406 -70.22530 37087 ft 484 kts 58°
2026-05-05 22:53 30.41892 -70.15861 37096 ft 484 kts 58°
2026-05-05 22:53 30.45365 -70.09183 37097 ft 484 kts 58°
2026-05-05 22:54 30.48811 -70.02543 37093 ft 484 kts 58°
2026-05-05 22:54 30.52295 -69.95864 37096 ft 484 kts 59°
2026-05-05 22:55 30.55772 -69.89178 37095 ft 484 kts 59°
2026-05-05 22:55 30.59246 -69.82476 37093 ft 485 kts 59°
2026-05-05 22:56 30.62688 -69.75811 37099 ft 485 kts 59°
2026-05-05 22:56 30.66148 -69.69092 37095 ft 485 kts 59°
2026-05-05 22:57 30.69609 -69.62359 37097 ft 485 kts 59°
2026-05-05 22:57 30.73072 -69.55627 37100 ft 485 kts 59°
2026-05-05 22:58 30.76505 -69.48937 37104 ft 485 kts 59°
2026-05-05 22:58 30.79964 -69.42204 37092 ft 485 kts 59°
2026-05-05 22:59 30.83414 -69.35459 37095 ft 485 kts 60°
2026-05-05 22:59 30.86863 -69.28705 37106 ft 485 kts 60°
2026-05-05 23:00 30.92017 -69.18615 37104 ft 486 kts 60°
2026-05-05 23:00 30.95454 -69.11842 37108 ft 485 kts 60°
2026-05-05 23:01 30.98888 -69.05067 37106 ft 485 kts 60°
2026-05-05 23:01 31.02326 -68.98295 37106 ft 486 kts 60°
2026-05-05 23:02 31.05754 -68.91512 37108 ft 485 kts 60°
2026-05-05 23:02 31.09156 -68.84774 37107 ft 485 kts 60°
2026-05-05 23:03 31.12578 -68.77987 37110 ft 485 kts 60°
2026-05-05 23:03 31.15993 -68.71196 37106 ft 485 kts 60°
2026-05-05 23:04 31.19409 -68.64408 37107 ft 485 kts 61°
2026-05-05 23:04 31.22795 -68.57662 37108 ft 485 kts 61°
2026-05-05 23:05 31.26189 -68.50863 37114 ft 484 kts 61°
2026-05-05 23:05 31.29581 -68.44068 37120 ft 484 kts 61°
2026-05-05 23:06 31.32969 -68.37277 37117 ft 483 kts 61°
2026-05-05 23:06 31.36330 -68.30533 37122 ft 483 kts 61°
2026-05-05 23:07 31.39707 -68.23744 37120 ft 482 kts 62°
2026-05-05 23:07 31.43072 -68.16959 37128 ft 482 kts 61°
2026-05-05 23:08 31.46435 -68.10179 37131 ft 481 kts 62°
2026-05-05 23:08 31.49261 -68.03190 37130 ft 476 kts 76°
2026-05-05 23:09 31.51252 -67.95805 37129 ft 475 kts 76°
2026-05-05 23:09 31.53259 -67.88428 37126 ft 475 kts 76°
2026-05-05 23:10 31.55270 -67.81052 37122 ft 475 kts 76°
2026-05-05 23:10 31.57258 -67.73725 37121 ft 475 kts 76°
2026-05-05 23:11 31.59251 -67.66342 37120 ft 475 kts 76°
2026-05-05 23:11 31.61241 -67.58953 37114 ft 475 kts 76°
2026-05-05 23:12 31.63229 -67.51549 37114 ft 476 kts 76°
2026-05-05 23:12 31.65043 -67.44741 37115 ft 476 kts 76°
2026-05-05 23:13 31.67019 -67.37329 37112 ft 476 kts 76°
2026-05-05 23:13 31.69002 -67.29905 37113 ft 477 kts 76°
2026-05-05 23:14 31.70998 -67.22389 36792 ft 488 kts 76°
2026-05-05 23:14 31.72006 -67.18575 36537 ft 489 kts 76°
2026-05-05 23:14 31.73002 -67.14814 36297 ft 489 kts 76°
2026-05-05 23:15 31.74010 -67.11000 36043 ft 489 kts 76°
2026-05-05 23:15 31.75019 -67.07191 35679 ft 487 kts 76°
2026-05-05 23:15 31.76027 -67.03395 35071 ft 487 kts 76°
2026-05-05 23:15 31.77028 -66.99604 34505 ft 485 kts 76°
2026-05-05 23:16 31.78022 -66.95825 34016 ft 482 kts 76°
2026-05-05 23:16 31.79009 -66.92073 33522 ft 479 kts 76°
2026-05-05 23:16 31.79989 -66.88337 33030 ft 477 kts 76°
2026-05-05 23:16 31.80948 -66.84675 32549 ft 473 kts 76°
2026-05-05 23:17 31.81913 -66.80987 32064 ft 471 kts 76°
2026-05-05 23:17 31.82871 -66.77322 31586 ft 468 kts 76°
2026-05-05 23:17 31.83819 -66.73682 31114 ft 464 kts 76°
2026-05-05 23:17 31.84758 -66.70067 30649 ft 461 kts 76°
2026-05-05 23:18 31.85692 -66.66475 30199 ft 457 kts 76°
2026-05-05 23:18 31.86618 -66.62915 29759 ft 454 kts 77°
2026-05-05 23:18 31.87525 -66.59428 29328 ft 450 kts 77°
2026-05-05 23:18 31.88436 -66.55918 28900 ft 447 kts 76°
2026-05-05 23:19 31.89338 -66.52436 28473 ft 443 kts 76°
2026-05-05 23:19 31.90231 -66.48976 28048 ft 440 kts 76°
2026-05-05 23:19 31.91117 -66.45543 27627 ft 437 kts 76°
2026-05-05 23:19 31.91999 -66.42128 27184 ft 435 kts 76°
2026-05-05 23:20 31.92875 -66.38730 26747 ft 432 kts 76°
2026-05-05 23:20 31.93747 -66.35352 26294 ft 430 kts 76°
2026-05-05 23:20 31.94613 -66.31991 25841 ft 428 kts 76°
2026-05-05 23:20 31.95463 -66.28693 25379 ft 425 kts 76°
2026-05-05 23:21 31.96314 -66.25369 24898 ft 423 kts 76°
2026-05-05 23:21 31.97157 -66.22063 24416 ft 421 kts 75°
2026-05-05 23:21 31.97997 -66.18770 23928 ft 418 kts 75°
2026-05-05 23:21 31.98832 -66.15501 23447 ft 416 kts 75°
2026-05-05 23:22 31.99663 -66.12250 22965 ft 413 kts 75°
2026-05-05 23:22 32.00489 -66.09019 22482 ft 411 kts 75°
2026-05-05 23:22 32.01309 -66.05807 22014 ft 408 kts 75°
2026-05-05 23:22 32.02110 -66.02668 21621 ft 403 kts 75°
2026-05-05 23:23 32.02913 -65.99508 21141 ft 400 kts 75°
2026-05-05 23:23 32.03708 -65.96386 20664 ft 398 kts 74°
2026-05-05 23:23 32.04495 -65.93285 20278 ft 392 kts 74°
2026-05-05 23:23 32.05269 -65.90223 19715 ft 386 kts 74°
2026-05-05 23:24 32.06022 -65.87240 19281 ft 373 kts 74°
2026-05-05 23:24 32.06754 -65.84343 18862 ft 366 kts 74°
2026-05-05 23:24 32.07478 -65.81473 18433 ft 365 kts 74°
2026-05-05 23:24 32.08198 -65.78617 18012 ft 362 kts 74°
2026-05-05 23:25 32.08906 -65.75803 17465 ft 362 kts 74°
2026-05-05 23:25 32.09610 -65.73005 17056 ft 350 kts 73°
2026-05-05 23:25 32.10293 -65.70291 16672 ft 341 kts 74°
2026-05-05 23:25 32.10964 -65.67613 16278 ft 340 kts 74°
2026-05-05 23:26 32.11632 -65.64944 15893 ft 339 kts 73°
2026-05-05 23:26 32.12500 -65.62367 15507 ft 338 kts 62°
2026-05-05 23:26 32.13624 -65.59937 15124 ft 337 kts 61°
2026-05-05 23:26 32.14742 -65.57518 14744 ft 335 kts 61°
2026-05-05 23:27 32.15838 -65.55142 14368 ft 333 kts 61°
2026-05-05 23:27 32.16943 -65.52740 13982 ft 332 kts 61°
2026-05-05 23:27 32.18038 -65.50361 13594 ft 325 kts 61°
2026-05-05 23:27 32.19096 -65.48054 13229 ft 315 kts 61°
2026-05-05 23:28 32.20132 -65.45787 12864 ft 313 kts 62°
2026-05-05 23:28 32.21167 -65.43525 12492 ft 312 kts 61°
2026-05-05 23:28 32.22199 -65.41272 12112 ft 312 kts 61°
2026-05-05 23:28 32.23229 -65.39024 11719 ft 311 kts 61°
2026-05-05 23:29 32.24253 -65.36787 11342 ft 309 kts 62°
2026-05-05 23:29 32.25261 -65.34584 10954 ft 307 kts 62°
2026-05-05 23:29 32.26261 -65.32390 10574 ft 301 kts 62°
2026-05-05 23:29 32.27248 -65.30220 10187 ft 298 kts 62°
2026-05-05 23:30 32.28226 -65.28073 9663 ft 291 kts 62°
2026-05-05 23:30 32.29170 -65.26009 9426 ft 282 kts 62°
2026-05-05 23:30 32.30083 -65.24013 9290 ft 269 kts 62°
2026-05-05 23:30 32.30941 -65.22136 9178 ft 252 kts 62°
2026-05-05 23:31 32.31761 -65.20333 8935 ft 248 kts 62°
2026-05-05 23:31 32.32564 -65.18562 8612 ft 247 kts 62°
2026-05-05 23:31 32.33374 -65.16779 8298 ft 245 kts 62°
2026-05-05 23:31 32.34180 -65.15010 7989 ft 244 kts 62°
2026-05-05 23:32 32.34982 -65.13252 7681 ft 242 kts 62°
2026-05-05 23:32 32.35778 -65.11507 7376 ft 240 kts 62°
2026-05-05 23:32 32.36564 -65.09789 7046 ft 237 kts 62°
2026-05-05 23:32 32.37342 -65.08073 6711 ft 237 kts 62°
2026-05-05 23:33 32.38120 -65.06356 6413 ft 236 kts 62°
2026-05-05 23:33 32.38893 -65.04642 5852 ft 245 kts 62°
2026-05-05 23:33 32.39703 -65.02851 5366 ft 243 kts 62°
2026-05-05 23:33 32.40470 -65.01160 5179 ft 223 kts 62°
2026-05-05 23:34 32.41147 -64.99568 5095 ft 211 kts 69°
2026-05-05 23:34 32.41444 -64.97904 4963 ft 200 kts 86°
2026-05-05 23:34 32.41302 -64.96286 4678 ft 196 kts 101°
2026-05-05 23:34 32.41025 -64.94720 4416 ft 192 kts 100°
2026-05-05 23:35 32.40761 -64.93186 4160 ft 186 kts 99°
2026-05-05 23:35 32.40513 -64.91711 3920 ft 180 kts 99°
2026-05-05 23:35 32.40273 -64.90299 3686 ft 173 kts 99°
2026-05-05 23:35 32.40044 -64.88960 3470 ft 159 kts 98°
2026-05-05 23:36 32.39840 -64.87763 3277 ft 138 kts 97°
2026-05-05 23:36 32.39656 -64.86682 3102 ft 132 kts 97°
2026-05-05 23:36 32.39476 -64.85627 2936 ft 130 kts 97°
2026-05-05 23:36 32.39297 -64.84579 2770 ft 130 kts 97°
2026-05-05 23:37 32.39116 -64.83533 2600 ft 129 kts 97°
2026-05-05 23:37 32.38936 -64.82492 2427 ft 129 kts 98°
2026-05-05 23:37 32.38757 -64.81467 2264 ft 129 kts 97°
2026-05-05 23:37 32.38578 -64.80428 2096 ft 128 kts 98°
2026-05-05 23:38 32.38398 -64.79396 1931 ft 128 kts 97°
2026-05-05 23:38 32.38222 -64.78363 1765 ft 129 kts 97°
2026-05-05 23:38 32.38045 -64.77327 1585 ft 129 kts 97°
2026-05-05 23:38 32.37866 -64.76287 1398 ft 130 kts 97°
2026-05-05 23:39 32.37687 -64.75240 1197 ft 130 kts 98°
2026-05-05 23:39 32.37505 -64.74199 1003 ft 129 kts 98°
2026-05-05 23:39 32.37327 -64.73176 809 ft 128 kts 98°
2026-05-05 23:39 32.37149 -64.72145 628 ft 128 kts 98°
2026-05-05 23:40 32.36971 -64.71111 428 ft 128 kts 97°
2026-05-05 23:40 32.36794 -64.70072 218 ft 129 kts 99°
2026-05-05 23:40 32.36604 -64.69035 32 ft 128 kts 99°
2026-05-05 23:40 32.36468 -64.68226 28 ft 59 kts 101°
2026-05-05 23:41 32.36416 -64.67914 26 ft 18 kts 101°
2026-05-05 23:41 32.36435 -64.67831 27 ft 10 kts 22°
2026-05-05 23:41 32.36504 -64.67815 27 ft 10 kts
2026-05-05 23:41 32.36546 -64.67872 27 ft 11 kts 283°
2026-05-05 23:42 32.36562 -64.67962 27 ft 12 kts 280°
2026-05-05 23:42 32.36578 -64.68065 27 ft 14 kts 281°
2026-05-05 23:42 32.36597 -64.68179 27 ft 15 kts 282°
2026-05-05 23:42 32.36620 -64.68300 27 ft 16 kts 282°
2026-05-05 23:43 32.36642 -64.68433 27 ft 17 kts 281°
2026-05-05 23:43 32.36664 -64.68559 27 ft 15 kts 282°
2026-05-05 23:43 32.36683 -64.68670 27 ft 13 kts 282°
2026-05-05 23:43 32.36702 -64.68782 27 ft 15 kts 281°
2026-05-05 23:44 32.36716 -64.68885 27 ft 12 kts 266°
2026-05-05 23:44 32.36686 -64.68977 27 ft 13 kts 247°
2026-05-05 23:44 32.36650 -64.69078 26 ft 14 kts 247°
2026-05-05 23:44 32.36610 -64.69192 26 ft 16 kts 248°
2026-05-05 23:45 32.36567 -64.69314 27 ft 17 kts 247°
2026-05-05 23:45 32.36522 -64.69442 26 ft 18 kts 247°
2026-05-05 23:45 32.36473 -64.69581 27 ft 19 kts 248°
2026-05-05 23:45 32.36422 -64.69725 27 ft 18 kts 246°
2026-05-05 23:46 32.36379 -64.69842 27 ft 14 kts 247°
2026-05-05 23:46 32.36384 -64.69932 27 ft 12 kts 314°
2026-05-05 23:46 32.36447 -64.70001 27 ft 13 kts 309°
2026-05-05 23:46 32.36455 -64.70095 27 ft 13 kts 245°
2026-05-05 23:47 32.36419 -64.70189 27 ft 10 kts 248°
2026-05-05 23:47 32.36393 -64.70272 27 ft 12 kts 250°
2026-05-05 23:47 32.36374 -64.70329 27 ft 0 kts 246°
2026-05-05 23:48 32.36374 -64.70332 27 ft 1 kts 262°
2026-05-05 23:48 32.36385 -64.70334 27 ft 2 kts
2026-05-05 23:48 32.36385 -64.70306 27 ft 7 kts 94°
2026-05-05 23:48 32.36403 -64.70230 27 ft 12 kts 63°
2026-05-05 23:49 32.36439 -64.70147 27 ft 14 kts 63°
2026-05-05 23:49 32.36468 -64.70070 27 ft 10 kts 70°
2026-05-05 23:49 32.36429 -64.69980 27 ft 13 kts 134°
2026-05-05 23:49 32.36363 -64.69942 27 ft 8 kts 188°
2026-05-05 23:50 32.36322 -64.70007 27 ft 9 kts 247°
2026-05-05 23:50 32.36296 -64.70078 27 ft 0 kts 246°
2026-05-05 23:50 32.36449 -64.70237 27 ft 0 kts 337°